Regional Weather Roundup
Issued by NWS Goodland, KS

Home | Current Version | Previous Version | Text Only | Print | Product List | Glossary On
Versions: 1 2 3 4 5 6 7 8 9 10 11 12 13 14 15 16 17 18 19 20 21 22 23 24 25 26 27 28 29 30 31 32 33 34 35 36 37 38 39 40 41 42 43 44 45 46 47 48 49 50
000
ASUS43 KGLD 231708
RWRGLD

GOODLAND FORECAST AREA HOURLY WEATHER ROUNDUP
NATIONAL WEATHER SERVICE GOODLAND KS
1000 AM MST THU FEB 23 2017

...OFFICIAL OBSERVATIONS...

CITY           SKY/WX    TMP DP  RH WIND       PRES   REMARKS
GOODLAND KS    CLOUDY    33  33 100 E21       29.53F
HILL CITY KS   CLOUDY    43  35  73 E18G26    29.58F
IMPERIAL NEB   CLOUDY    30  28  92 NE23      29.62F FOG     WCI  17
MCCOOK NEB     CLOUDY    32  31  96 NE20G28   29.62F FOG
AKRON CO       FRZ RAIN  29  27  92 NE22G29   29.54F FOG     WCI  15
BURLINGTON CO  FOG       34  34 100 E20       29.51F VSB 1/4
LIMON CO       CLOUDY    30  30 100 E13       29.50S FOG     WCI  20
$$

...UNOFFICIAL OBSERVATIONS...

CITY           SKY/WX    TMP DP  RH WIND       PRES   REMARKS
LENORA KS        N/A     38  32  79 E12G18      N/A
NORTON KS      CLOUDY    36  28  75 NE18      29.60F
SHARON SPRINGS   N/A     38  35  90 NE17G24     N/A
TRENTON NEB      N/A     30  32 100 E12         N/A
KIT CARSON CO    N/A     36  31  83 MISG        N/A
YUMA CO        LGT RAIN  32  30  93 NE9       29.56F
$$



USA.gov is the U.S. government's official web portal to all federal, state and local government web resources and services.